Location: *
(44.3526°S, 44.9014°W)
Time: 22:51:44
(UTC+00:00)

Meteor 2-20 Rocket - Pass Details

Date: 13 May 2025
Orbit: 872 x 1022 km, 82.5° (Epoch: 14 June)

Event Time Altitude Azimuth Distance (km) Brightness Sun altitude
Rises 21:10:42 0° 186° (S) 3,658 7.5 -15.5°
Reaches altitude 10° 21:13:19 10° 181° (S) 2,684 6.7 -15.9°
Maximum altitude 21:19:20 57° 103° (ESE) 1,076 4.4 -17.0°
Drops below altitude 10° 21:25:04 10° 24° (NNE) 2,563 6.6 -18.0°
Sets 21:27:31 0° 19° (NNE) 3,481 7.3 -18.4°
